When you browse on this site, cookies collect data to enhance your experience and personalize the content and advertising you see.
Visit our Privacy Policy to learn more. By continuing to use the site, you agree to this use of cookies and data.

Previsão horária em Aavasaksa

Hoje, 27 Setembro, Domingo

Tempo Temperatura Precipitação Vento Pressão Humidade
00:00 +3°C° 0 mm 3 m/s 760 mmHg 86%
01:00 +3°C° 0 mm 3 m/s 760 mmHg 85%
02:00 +3°C° 0 mm 3 m/s 761 mmHg 85%
03:00 +3°C° 0 mm 3 m/s 761 mmHg 85%
04:00 +2°C° 0 mm 3 m/s 761 mmHg 86%
05:00 +2°C° 0 mm 3 m/s 761 mmHg 87%
06:00 +3°C° 0 mm 3 m/s 762 mmHg 87%
07:00 +3°C° 0 mm 3 m/s 762 mmHg 86%
08:00 +3°C° 0 mm 3 m/s 762 mmHg 84%
09:00 +4°C° 0 mm 3 m/s 762 mmHg 82%
10:00 +5°C° 0 mm 3 m/s 762 mmHg 80%
11:00 +7°C° 0 mm 3 m/s 762 mmHg 78%
12:00 +7°C° 0 mm 3 m/s 762 mmHg 78%
13:00 +8°C° 0 mm 3 m/s 762 mmHg 79%
14:00 +8°C° 0 mm 3 m/s 762 mmHg 78%
15:00 +8°C° 0 mm 3 m/s 762 mmHg 82%
16:00 +7°C° 0 mm 3 m/s 761 mmHg 85%
17:00 +7°C° 0 mm 2 m/s 761 mmHg 89%
18:00 +7°C° 0.2 mm 2 m/s 761 mmHg 91%
19:00 +7°C° 0.2 mm 2 m/s 761 mmHg 94%
20:00 +7°C° 0.2 mm 2 m/s 761 mmHg 96%
21:00 +7°C° 1.4 mm 2 m/s 760 mmHg 97%
22:00 +8°C° 1.4 mm 1 m/s 760 mmHg 98%
23:00 +8°C° 1.4 mm 1 m/s 760 mmHg 99%

Amanhã, 28 Setembro, Segunda-feira

Tempo Temperatura Precipitação Vento Pressão Humidade
00:00 +9°C° 1.6 mm 1 m/s 760 mmHg 99%
01:00 +9°C° 1.6 mm 1 m/s 759 mmHg 99%
02:00 +9°C° 1.6 mm 1 m/s 759 mmHg 99%
03:00 +9°C° 0.3 mm 1 m/s 759 mmHg 99%
04:00 +9°C° 0.3 mm 1 m/s 759 mmHg 99%
05:00 +10°C° 0.3 mm 1 m/s 758 mmHg 99%
06:00 +10°C° 0.1 mm 1 m/s 758 mmHg 99%
07:00 +10°C° 0.1 mm 1 m/s 758 mmHg 99%
08:00 +10°C° 0.1 mm 1 m/s 758 mmHg 99%
09:00 +11°C° 0 mm 1 m/s 758 mmHg 98%
10:00 +12°C° 0 mm 1 m/s 758 mmHg 97%
11:00 +12°C° 0 mm 1 m/s 758 mmHg 96%
12:00 +13°C° 0 mm 2 m/s 758 mmHg 95%
13:00 +14°C° 0 mm 2 m/s 758 mmHg 94%
14:00 +14°C° 0 mm 2 m/s 758 mmHg 93%
15:00 +14°C° 0 mm 2 m/s 757 mmHg 94%
16:00 +14°C° 0 mm 2 m/s 757 mmHg 95%
17:00 +13°C° 0 mm 2 m/s 757 mmHg 96%
18:00 +13°C° 0 mm 2 m/s 757 mmHg 97%
19:00 +12°C° 0 mm 1 m/s 757 mmHg 97%
20:00 +11°C° 0 mm 1 m/s 757 mmHg 98%
21:00 +11°C° 0 mm 1 m/s 757 mmHg 98%
22:00 +11°C° 0 mm 1 m/s 757 mmHg 98%
23:00 +11°C° 0 mm 1 m/s 757 mmHg 98%

Depois de amanhã, 29 Setembro, Terça-feira

Tempo Temperatura Precipitação Vento Pressão Humidade
00:00 +10°C° 0 mm 1 m/s 757 mmHg 98%
01:00 +10°C° 0 mm 1 m/s 757 mmHg 98%
02:00 +10°C° 0 mm 1 m/s 757 mmHg 98%
03:00 +10°C° 0 mm 1 m/s 757 mmHg 98%
04:00 +10°C° 0 mm 1 m/s 757 mmHg 98%
05:00 +10°C° 0 mm 1 m/s 757 mmHg 98%
06:00 +11°C° 0 mm 1 m/s 757 mmHg 98%
07:00 +11°C° 0 mm 1 m/s 757 mmHg 98%
08:00 +11°C° 0 mm 1 m/s 757 mmHg 98%
09:00 +12°C° 0 mm 2 m/s 757 mmHg 96%
10:00 +13°C° 0 mm 2 m/s 757 mmHg 94%
11:00 +14°C° 0 mm 2 m/s 757 mmHg 91%
12:00 +14°C° 0 mm 2 m/s 757 mmHg 91%
13:00 +14°C° 0 mm 2 m/s 757 mmHg 90%
14:00 +14°C° 0 mm 3 m/s 757 mmHg 89%
15:00 +14°C° 0 mm 2 m/s 757 mmHg 90%
16:00 +14°C° 0 mm 2 m/s 757 mmHg 91%
17:00 +13°C° 0 mm 2 m/s 757 mmHg 92%
18:00 +13°C° 0 mm 2 m/s 757 mmHg 93%
19:00 +12°C° 0 mm 1 m/s 757 mmHg 95%
20:00 +11°C° 0 mm 1 m/s 757 mmHg 96%
21:00 +11°C° 0 mm 1 m/s 758 mmHg 96%
22:00 +11°C° 0 mm 1 m/s 758 mmHg 95%
23:00 +11°C° 0 mm 1 m/s 758 mmHg 95%

30 Setembro, Quarta-feira

Tempo Temperatura Precipitação Vento Pressão Humidade
00:00 +11°C° 0 mm 1 m/s 758 mmHg 95%
01:00 +11°C° 0 mm 1 m/s 758 mmHg 95%
02:00 +11°C° 0 mm 1 m/s 758 mmHg 95%
03:00 +11°C° 0 mm 1 m/s 758 mmHg 95%
04:00 +11°C° 0 mm 1 m/s 758 mmHg 95%
05:00 +11°C° 0 mm 1 m/s 758 mmHg 95%
06:00 +11°C° 0 mm 1 m/s 758 mmHg 95%
07:00 +11°C° 0 mm 1 m/s 758 mmHg 94%
08:00 +11°C° 0 mm 1 m/s 758 mmHg 94%
09:00 +11°C° 0 mm 1 m/s 758 mmHg 93%
10:00 +12°C° 0 mm 1 m/s 758 mmHg 93%
11:00 +12°C° 0 mm 1 m/s 758 mmHg 92%
12:00 +12°C° 0 mm 1 m/s 758 mmHg 92%
13:00 +12°C° 0 mm 1 m/s 758 mmHg 93%
14:00 +11°C° 0 mm 0 m/s 758 mmHg 94%
15:00 +12°C° 0 mm 1 m/s 758 mmHg 94%
16:00 +12°C° 0 mm 1 m/s 758 mmHg 94%
17:00 +12°C° 0 mm 1 m/s 757 mmHg 95%
18:00 +11°C° 0 mm 1 m/s 757 mmHg 95%
19:00 +11°C° 0 mm 1 m/s 758 mmHg 95%
20:00 +11°C° 0 mm 1 m/s 758 mmHg 96%
21:00 +10°C° 0 mm 1 m/s 758 mmHg 96%
22:00 +9°C° 0 mm 1 m/s 758 mmHg 97%
23:00 +9°C° 0 mm 1 m/s 757 mmHg 98%

1 Outubro, Quinta-feira

Tempo Temperatura Precipitação Vento Pressão Humidade
00:00 +8°C° 0 mm 1 m/s 757 mmHg 98%
01:00 +8°C° 0 mm 1 m/s 757 mmHg 98%
02:00 +8°C° 0 mm 1 m/s 757 mmHg 98%
03:00 +8°C° 0 mm 1 m/s 757 mmHg 98%
04:00 +8°C° 0 mm 1 m/s 757 mmHg 98%
05:00 +8°C° 0 mm 1 m/s 757 mmHg 98%
06:00 +8°C° 0.1 mm 1 m/s 757 mmHg 98%
07:00 +9°C° 0.1 mm 1 m/s 757 mmHg 98%
08:00 +10°C° 0.1 mm 1 m/s 757 mmHg 98%
09:00 +10°C° 0.3 mm 1 m/s 758 mmHg 98%
10:00 +9°C° 0.3 mm 2 m/s 758 mmHg 97%
11:00 +10°C° 0.3 mm 2 m/s 758 mmHg 97%
12:00 +10°C° 0.2 mm 2 m/s 758 mmHg 97%
13:00 +10°C° 0.2 mm 2 m/s 758 mmHg 96%
14:00 +10°C° 0.2 mm 2 m/s 758 mmHg 96%
15:00 +10°C° 0.1 mm 2 m/s 758 mmHg 96%
16:00 +10°C° 0.1 mm 2 m/s 758 mmHg 96%
17:00 +10°C° 0.1 mm 2 m/s 758 mmHg 96%
18:00 +11°C° 0 mm 1 m/s 758 mmHg 97%
19:00 +10°C° 0 mm 1 m/s 758 mmHg 98%
20:00 +10°C° 0 mm 1 m/s 758 mmHg 98%
21:00 +10°C° 0 mm 1 m/s 758 mmHg 98%
22:00 +10°C° 0 mm 1 m/s 759 mmHg 98%
23:00 +10°C° 0 mm 1 m/s 759 mmHg 97%

2 Outubro, Sexta-feira

Tempo Temperatura Precipitação Vento Pressão Humidade
00:00 +9°C° 0 mm 1 m/s 759 mmHg 97%
01:00 +9°C° 0 mm 1 m/s 759 mmHg 97%
02:00 +8°C° 0 mm 1 m/s 759 mmHg 97%
03:00 +8°C° 0 mm 1 m/s 759 mmHg 97%
04:00 +8°C° 0 mm 1 m/s 759 mmHg 96%
05:00 +7°C° 0 mm 1 m/s 759 mmHg 96%
06:00 +7°C° 0 mm 1 m/s 759 mmHg 96%
07:00 +8°C° 0 mm 1 m/s 759 mmHg 95%
08:00 +8°C° 0 mm 1 m/s 759 mmHg 95%
09:00 +8°C° 0 mm 2 m/s 759 mmHg 92%
10:00 +10°C° 0 mm 2 m/s 760 mmHg 89%
11:00 +12°C° 0 mm 2 m/s 760 mmHg 86%
12:00 +12°C° 0 mm 2 m/s 760 mmHg 84%
13:00 +13°C° 0 mm 2 m/s 760 mmHg 82%
14:00 +13°C° 0 mm 2 m/s 760 mmHg 81%
15:00 +13°C° 0 mm 2 m/s 760 mmHg 84%
16:00 +12°C° 0 mm 2 m/s 760 mmHg 87%
17:00 +11°C° 0 mm 1 m/s 760 mmHg 90%
18:00 +11°C° 0 mm 1 m/s 760 mmHg 92%
19:00 +10°C° 0 mm 1 m/s 760 mmHg 94%
20:00 +9°C° 0 mm 1 m/s 761 mmHg 95%
21:00 +8°C° 0 mm 1 m/s 761 mmHg 96%
22:00 +8°C° 0 mm 1 m/s 761 mmHg 96%
23:00 +8°C° 0 mm 1 m/s 761 mmHg 97%
Mostrar mais